• In Uzbekistan
  • List of Countries
  • For 7 days
  • Water Temperature
  • Weather Map
  • Weather Widgets
  • user-avatar
    Login

    Hourly Weather La Rioja

    Today, 21 September, Saturday

    Time Temperature Precipitation Wind Pressure Humidity
    00:00 +12°C° 0 mm 1 mps 718 mmHg 22%
    01:00 +11°C° 0 mm 1 mps 718 mmHg 22%
    02:00 +11°C° 0 mm 1 mps 718 mmHg 22%
    03:00 +11°C° 0 mm 1 mps 718 mmHg 23%
    04:00 +10°C° 0 mm 1 mps 717 mmHg 24%
    05:00 +10°C° 0 mm 1 mps 717 mmHg 24%
    06:00 +12°C° 0 mm 1 mps 718 mmHg 23%
    07:00 +14°C° 0 mm 1 mps 718 mmHg 21%
    08:00 +15°C° 0 mm 2 mps 719 mmHg 19%
    09:00 +17°C° 0 mm 2 mps 719 mmHg 18%
    10:00 +19°C° 0 mm 2 mps 719 mmHg 16%
    11:00 +20°C° 0 mm 2 mps 718 mmHg 15%
    12:00 +21°C° 0 mm 2 mps 718 mmHg 14%
    13:00 +23°C° 0 mm 2 mps 717 mmHg 14%
    14:00 +24°C° 0 mm 3 mps 716 mmHg 13%
    15:00 +24°C° 0 mm 2 mps 716 mmHg 13%
    16:00 +24°C° 0 mm 2 mps 716 mmHg 13%
    17:00 +25°C° 0 mm 2 mps 716 mmHg 13%
    18:00 +23°C° 0 mm 2 mps 717 mmHg 14%
    19:00 +20°C° 0 mm 2 mps 717 mmHg 16%
    20:00 +18°C° 0 mm 2 mps 718 mmHg 18%
    21:00 +17°C° 0 mm 2 mps 718 mmHg 22%
    22:00 +17°C° 0 mm 2 mps 718 mmHg 25%
    23:00 +16°C° 0 mm 1 mps 718 mmHg 29%

    Tomorrow, 22 September, Sunday

    Time Temperature Precipitation Wind Pressure Humidity
    00:00 +15°C° 0 mm 1 mps 718 mmHg 31%
    01:00 +15°C° 0 mm 1 mps 718 mmHg 33%
    02:00 +14°C° 0 mm 1 mps 718 mmHg 35%
    03:00 +14°C° 0 mm 2 mps 718 mmHg 37%
    04:00 +13°C° 0 mm 2 mps 718 mmHg 39%
    05:00 +13°C° 0 mm 2 mps 718 mmHg 42%
    06:00 +14°C° 0 mm 2 mps 719 mmHg 38%
    07:00 +16°C° 0 mm 2 mps 719 mmHg 35%
    08:00 +18°C° 0 mm 3 mps 720 mmHg 31%
    09:00 +19°C° 0 mm 3 mps 719 mmHg 28%
    10:00 +21°C° 0 mm 2 mps 719 mmHg 26%
    11:00 +23°C° 0 mm 2 mps 719 mmHg 23%
    12:00 +24°C° 0 mm 3 mps 718 mmHg 22%
    13:00 +26°C° 0 mm 3 mps 717 mmHg 20%
    14:00 +27°C° 0 mm 3 mps 716 mmHg 19%
    15:00 +27°C° 0 mm 4 mps 716 mmHg 20%
    16:00 +27°C° 0 mm 4 mps 716 mmHg 21%
    17:00 +28°C° 0 mm 5 mps 715 mmHg 21%
    18:00 +26°C° 0 mm 5 mps 716 mmHg 25%
    19:00 +23°C° 0 mm 4 mps 716 mmHg 29%
    20:00 +21°C° 0 mm 4 mps 716 mmHg 33%
    21:00 +20°C° 0 mm 3 mps 716 mmHg 35%
    22:00 +18°C° 0 mm 3 mps 716 mmHg 37%
    23:00 +17°C° 0 mm 2 mps 716 mmHg 39%

    Day after tomorrow, 23 September, Monday

    Time Temperature Precipitation Wind Pressure Humidity
    00:00 +16°C° 0 mm 2 mps 716 mmHg 40%
    01:00 +15°C° 0 mm 2 mps 716 mmHg 41%
    02:00 +15°C° 0 mm 2 mps 715 mmHg 42%
    03:00 +14°C° 0 mm 2 mps 715 mmHg 43%
    04:00 +14°C° 0 mm 2 mps 715 mmHg 45%
    05:00 +12°C° 0 mm 3 mps 715 mmHg 46%
    06:00 +13°C° 0 mm 3 mps 716 mmHg 43%
    07:00 +15°C° 0 mm 4 mps 717 mmHg 41%
    08:00 +17°C° 0 mm 4 mps 717 mmHg 38%
    09:00 +17°C° 0 mm 5 mps 718 mmHg 35%
    10:00 +20°C° 0 mm 5 mps 719 mmHg 32%
    11:00 +22°C° 0 mm 5 mps 719 mmHg 28%
    12:00 +23°C° 0 mm 5 mps 719 mmHg 27%
    13:00 +25°C° 0 mm 5 mps 719 mmHg 25%
    14:00 +26°C° 0 mm 5 mps 719 mmHg 23%
    15:00 +26°C° 0 mm 4 mps 719 mmHg 24%
    16:00 +26°C° 0 mm 3 mps 719 mmHg 24%
    17:00 +26°C° 0 mm 2 mps 719 mmHg 25%
    18:00 +24°C° 0 mm 2 mps 720 mmHg 29%
    19:00 +22°C° 0 mm 1 mps 720 mmHg 32%
    20:00 +20°C° 0 mm 1 mps 721 mmHg 36%
    21:00 +19°C° 0 mm 1 mps 722 mmHg 37%
    22:00 +19°C° 0 mm 1 mps 722 mmHg 38%
    23:00 +19°C° 0 mm 1 mps 723 mmHg 39%

    24 September, Tuesday

    Time Temperature Precipitation Wind Pressure Humidity
    00:00 +18°C° 0 mm 1 mps 723 mmHg 41%
    01:00 +16°C° 0 mm 1 mps 722 mmHg 44%
    02:00 +15°C° 0 mm 0 mps 722 mmHg 46%
    03:00 +14°C° 0 mm 0 mps 722 mmHg 48%
    04:00 +15°C° 0 mm 1 mps 722 mmHg 50%
    05:00 +14°C° 0 mm 1 mps 722 mmHg 52%
    06:00 +18°C° 0 mm 1 mps 723 mmHg 45%
    07:00 +20°C° 0 mm 1 mps 723 mmHg 38%
    08:00 +23°C° 0 mm 1 mps 724 mmHg 31%
    09:00 +24°C° 0 mm 1 mps 724 mmHg 28%
    10:00 +25°C° 0 mm 2 mps 723 mmHg 26%
    11:00 +27°C° 0 mm 2 mps 723 mmHg 23%
    12:00 +28°C° 0 mm 3 mps 722 mmHg 22%
    13:00 +29°C° 0 mm 3 mps 721 mmHg 20%
    14:00 +29°C° 0 mm 4 mps 720 mmHg 18%
    15:00 +29°C° 0 mm 4 mps 720 mmHg 18%
    16:00 +29°C° 0 mm 4 mps 719 mmHg 18%
    17:00 +29°C° 0 mm 4 mps 719 mmHg 17%
    18:00 +27°C° 0 mm 3 mps 719 mmHg 20%
    19:00 +24°C° 0 mm 2 mps 719 mmHg 23%
    20:00 +21°C° 0 mm 2 mps 720 mmHg 26%
    21:00 +21°C° 0 mm 1 mps 720 mmHg 27%
    22:00 +20°C° 0 mm 1 mps 720 mmHg 28%
    23:00 +20°C° 0 mm 1 mps 720 mmHg 30%

    25 September, Wednesday

    Time Temperature Precipitation Wind Pressure Humidity
    00:00 +19°C° 0 mm 1 mps 720 mmHg 31%
    01:00 +18°C° 0 mm 1 mps 720 mmHg 33%
    02:00 +16°C° 0 mm 1 mps 719 mmHg 35%
    03:00 +16°C° 0 mm 1 mps 719 mmHg 36%
    04:00 +16°C° 0 mm 1 mps 719 mmHg 37%
    05:00 +15°C° 0 mm 1 mps 719 mmHg 38%
    06:00 +18°C° 0 mm 1 mps 720 mmHg 34%
    07:00 +20°C° 0 mm 1 mps 720 mmHg 31%
    08:00 +21°C° 0 mm 2 mps 721 mmHg 28%
    09:00 +24°C° 0 mm 2 mps 720 mmHg 26%
    10:00 +25°C° 0 mm 2 mps 720 mmHg 24%
    11:00 +27°C° 0 mm 2 mps 720 mmHg 22%
    12:00 +28°C° 0 mm 3 mps 719 mmHg 20%
    13:00 +30°C° 0 mm 3 mps 718 mmHg 19%
    14:00 +31°C° 0 mm 3 mps 717 mmHg 17%
    15:00 +31°C° 0 mm 3 mps 717 mmHg 17%
    16:00 +31°C° 0 mm 3 mps 716 mmHg 17%
    17:00 +31°C° 0 mm 3 mps 715 mmHg 16%
    18:00 +29°C° 0 mm 3 mps 715 mmHg 19%
    19:00 +26°C° 0 mm 3 mps 715 mmHg 22%
    20:00 +24°C° 0 mm 3 mps 716 mmHg 24%
    21:00 +23°C° 0 mm 2 mps 716 mmHg 26%
    22:00 +21°C° 0 mm 2 mps 716 mmHg 28%
    23:00 +21°C° 0 mm 1 mps 716 mmHg 31%

    26 September, Thursday

    Time Temperature Precipitation Wind Pressure Humidity
    00:00 +20°C° 0 mm 1 mps 715 mmHg 32%
    01:00 +19°C° 0 mm 1 mps 715 mmHg 34%
    02:00 +18°C° 0 mm 1 mps 715 mmHg 35%
    03:00 +18°C° 0 mm 1 mps 714 mmHg 36%
    04:00 +16°C° 0 mm 1 mps 714 mmHg 37%
    05:00 +16°C° 0 mm 2 mps 713 mmHg 38%
    06:00 +18°C° 0 mm 2 mps 714 mmHg 36%
    07:00 +19°C° 0 mm 3 mps 714 mmHg 33%
    08:00 +21°C° 0 mm 3 mps 714 mmHg 30%
    09:00 +22°C° 0 mm 3 mps 714 mmHg 27%
    10:00 +25°C° 0 mm 3 mps 714 mmHg 25%
    11:00 +27°C° 0 mm 3 mps 714 mmHg 22%
    12:00 +28°C° 0 mm 3 mps 713 mmHg 20%
    13:00 +29°C° 0 mm 3 mps 712 mmHg 19%
    14:00 +30°C° 0 mm 2 mps 712 mmHg 18%
    15:00 +30°C° 0 mm 2 mps 711 mmHg 17%
    16:00 +31°C° 0 mm 2 mps 710 mmHg 17%
    17:00 +31°C° 0 mm 2 mps 710 mmHg 17%
    18:00 +29°C° 0 mm 2 mps 710 mmHg 20%
    19:00 +27°C° 0 mm 2 mps 710 mmHg 22%
    20:00 +25°C° 0 mm 2 mps 710 mmHg 25%
    21:00 +24°C° 0 mm 2 mps 710 mmHg 27%
    22:00 +23°C° 0 mm 1 mps 710 mmHg 29%
    23:00 +22°C° 0 mm 1 mps 710 mmHg 31%
    Show more